This demonstration page uses our WeatherBlox Daily Observations layout. Learn more.

Left ArrowRight Arrow

47.50024, -111.30081

Hourly Observations for April 11, 2022

Temp ( °F °C ) Dew Point ( °F °C ) Humidity (%) Winds ( mph kmh ) Pressure ( in mb ) Visibility ( mi km ) Precip ( " mm )
12:53 am 00:53 Mostly Cloudy 24 -4.4 21 -6.1 88 88 Calm 29.88 1012 10 16 0.00 0.00
1:07 am 01:07 Cloudy 24 -4.4 21 -6.1 88 88 N 5 7 29.94 1014 10 16 0.00 0.00
1:27 am 01:27 Cloudy with Light Snow 24 -4.4 21 -6.1 88 88 N 3 6 29.94 1014 6 10 0.00 0.00
1:34 am 01:34 Cloudy with Light Snow 24 -4.4 21 -6.1 88 88 NNE 5 7 29.94 1014 7 11 0.00 0.00
1:53 am 01:53 Cloudy 25 -3.9 22 -5.6 88 88 NE 6 9 29.86 1011 10 16 0.00 0.00
2:22 am 02:22 Cloudy 25 -3.9 23 -5 92 92 ENE 5 7 29.92 1013 10 16 0.00 0.00
2:53 am 02:53 Cloudy with Light Snow 25 -3.9 24 -4.4 96 96 E 6 9 29.86 1011 7 11 0.00 0.00
3:46 am 03:46 Cloudy with Light Snow 26 -3.3 23 -5 88 88 NE 8 13 29.90 1013 5 8 0.01 0.25
3:53 am 03:53 Cloudy with Light Snow 26 -3.3 23 -5 88 88 NE 10 17 29.86 1011 5 8 0.01 0.25
4:21 am 04:21 Cloudy with Light Snow 25 -3.9 22 -5.6 88 88 NE 13 20 29.90 1013 3 5 0.00 0.00
4:31 am 04:31 Cloudy with Light Snow 25 -3.9 22 -5.6 88 88 NE 12 19 29.90 1013 3 4 0.00 0.00
4:37 am 04:37 Cloudy with Light Snow 25 -3.9 22 -5.6 88 88 NE 10 17 29.90 1013 2 3 0.00 0.00
4:41 am 04:41 Cloudy with Light Snow 25 -3.9 22 -5.6 88 88 NE 14 22 29.90 1013 2 3 0.00 0.00
4:53 am 04:53 Cloudy with Light Snow 25 -3.9 22 -5.6 88 88 NE 13 20 29.85 1011 1 2 0.01 0.25
5:28 am 05:28 Mostly Cloudy with Light Snow 24 -4.4 21 -6.1 88 88 ENE 13 20 29.91 1013 1 2 0.02 0.51
5:35 am 05:35 Mostly Cloudy with Light Snow 24 -4.4 21 -6.1 88 88 ENE 14 22 29.91 1013 1 1 0.02 0.51
5:53 am 05:53 Mostly Cloudy with Light Snow 24 -4.4 20 -6.7 84 84 NE 10 17 29.86 1011 1 1 0.04 1.02
6:53 am 06:53 Mostly Cloudy with Light Snow 23 -5 19 -7.2 85 85 NNE 14 22 29.87 1012 1 1 0.05 1.27
7:29 am 07:29 Mostly Cloudy with Snow 23 -5 20 -6.7 88 88 NE 9 15 29.93 1013 0 0 0.02 0.51
7:53 am 07:53 Cloudy with Light Snow 22 -5.6 19 -7.2 89 89 NNE 10 17 29.89 1012 1 1 0.04 1.02
8:47 am 08:47 Cloudy with Light Snow 21 -6 18 -8 86 86 NNE 12 19 29.93 1014 2 3 0.01 0.25
8:53 am 08:53 Cloudy with Light Snow 21 -6.1 18 -7.8 88 88 NNE 12 19 29.89 1012 3 5 0.01 0.25
9:01 am 09:01 Cloudy 21 -6.1 18 -7.8 88 88 NNE 12 19 29.93 1014 8 13 0.00 0.00
9:53 am 09:53 Cloudy 25 -3.9 17 -8.3 72 72 NNE 9 15 29.88 1012 10 16 0.00 0.00
10:53 am 10:53 Cloudy 28 -2.2 15 -9.4 58 58 NNE 15 24 29.86 1011 10 16 0.00 0.00
11:53 am 11:53 Cloudy 28 -2.2 13 -10.6 53 53 NNE 20 31 29.86 1011 10 16 0.00 0.00
12:53 pm 12:53 Cloudy 30 -1.1 12 -11.1 47 47 NE 20 31 29.83 1010 10 16 0.00 0.00
1:53 pm 13:53 Cloudy 30 -1.1 14 -10 51 51 NE 23 37 29.80 1009 10 16 0.00 0.00
2:53 pm 14:53 Cloudy 30 -1.1 14 -10 51 51 NE 22 35 29.79 1009 10 16 0.00 0.00
3:53 pm 15:53 Cloudy 31 -0.6 14 -10 49 49 NE 18 30 29.76 1008 10 16 0.00 0.00
4:53 pm 16:53 Cloudy 31 -0.6 15 -9.4 52 52 NE 17 28 29.77 1008 10 16 0.00 0.00
5:53 pm 17:53 Cloudy 31 -0.6 15 -9.4 52 52 ENE 20 31 29.78 1009 10 16 0.00 0.00
6:53 pm 18:53 Cloudy 29 -1.7 17 -8.3 61 61 ENE 20 31 29.79 1009 10 16 0.00 0.00
7:53 pm 19:53 Cloudy 29 -1.7 14 -10 54 54 ENE 20 31 29.81 1010 10 16 0.00 0.00
8:53 pm 20:53 Cloudy 29 -1.7 14 -10 54 54 ENE 14 22 29.83 1010 10 16 0.00 0.00
9:53 pm 21:53 Cloudy 28 -2.2 13 -10.6 53 53 NE 20 31 29.81 1010 10 16 0.00 0.00
10:53 pm 22:53 Cloudy 27 -2.8 12 -11.1 53 53 NE 20 31 29.81 1010 10 16 0.00 0.00
11:53 pm 23:53 Cloudy 25 -3.9 10 -12.2 53 53 NE 26 43 29.84 1011 10 16 0.00 0.00

Powered by AerisWeather